date,time,SUV Intensity [MED/Hr],UV Index,Daily total [MED],Since Last [MED]
14/09/2022,00:00:37,0.000,0.0,0.0,0.0
14/09/2022,00:01:37,0.000,0.0,0.0,0.0
14/09/2022,00:02:37,0.000,0.0,0.0,0.0
14/09/2022,00:03:36,-0.001,0.0,0.0,0.0
14/09/2022,00:04:36,0.000,0.0,0.0,0.0
14/09/2022,00:05:45,0.000,0.0,0.0,0.0
14/09/2022,00:06:36,0.001,0.0,0.0,0.0
14/09/2022,00:07:45,0.000,0.0,0.0,0.0
14/09/2022,00:08:37,0.000,0.0,0.0,0.0
14/09/2022,00:09:37,-0.000,0.0,0.0,0.0
14/09/2022,00:10:37,0.001,0.0,0.0,0.0
14/09/2022,00:11:37,-0.000,0.0,0.0,0.0
14/09/2022,00:12:37,-0.001,0.0,0.0,0.0
14/09/2022,00:13:36,0.001,0.0,0.0,0.0
14/09/2022,00:14:37,-0.001,0.0,0.0,0.0
14/09/2022,00:15:37,0.001,0.0,0.0,0.0
14/09/2022,00:16:36,0.000,0.0,0.0,0.0
14/09/2022,00:17:37,0.000,0.0,0.0,0.0
14/09/2022,00:18:36,0.000,0.0,0.0,0.0
14/09/2022,00:19:36,0.000,0.0,0.0,0.0
14/09/2022,00:20:37,0.000,0.0,0.0,0.0
14/09/2022,00:21:36,-0.001,0.0,0.0,0.0
14/09/2022,00:22:37,0.000,0.0,0.0,0.0
14/09/2022,00:23:36,0.000,0.0,0.0,0.0
14/09/2022,00:24:36,0.000,0.0,0.0,0.0
14/09/2022,00:25:37,0.000,0.0,0.0,0.0
14/09/2022,00:26:36,-0.001,0.0,0.0,0.0
14/09/2022,00:27:38,0.000,0.0,0.0,0.0
14/09/2022,00:28:45,0.001,0.0,0.0,0.0
14/09/2022,00:29:37,-0.001,0.0,0.0,0.0
14/09/2022,00:30:36,0.000,0.0,0.0,0.0
14/09/2022,00:31:37,0.000,0.0,0.0,0.0
14/09/2022,00:32:36,0.000,0.0,0.0,0.0
14/09/2022,00:33:38,-0.001,0.0,0.0,0.0
14/09/2022,00:34:37,0.000,0.0,0.0,0.0
14/09/2022,00:35:37,-0.000,0.0,0.0,0.0
14/09/2022,00:36:37,0.000,0.0,0.0,0.0
14/09/2022,00:37:36,-0.000,0.0,0.0,0.0
14/09/2022,00:38:36,-0.001,0.0,0.0,0.0
14/09/2022,00:39:36,0.001,0.0,0.0,0.0
14/09/2022,00:40:36,0.000,0.0,0.0,0.0
14/09/2022,00:41:37,0.000,0.0,0.0,0.0
14/09/2022,00:42:37,-0.001,0.0,0.0,0.0
14/09/2022,00:43:37,0.000,0.0,0.0,0.0
14/09/2022,00:44:37,0.001,0.0,0.0,0.0
14/09/2022,00:45:36,0.000,0.0,0.0,0.0
14/09/2022,00:46:45,-0.000,0.0,0.0,0.0
14/09/2022,00:47:36,0.000,0.0,0.0,0.0
14/09/2022,00:48:36,0.000,0.0,0.0,0.0
14/09/2022,00:49:45,-0.001,0.0,0.0,0.0
14/09/2022,00:50:37,0.001,0.0,0.0,0.0
14/09/2022,00:51:37,0.000,0.0,0.0,0.0
14/09/2022,00:52:36,0.000,0.0,0.0,0.0
14/09/2022,00:53:36,0.000,0.0,0.0,0.0
14/09/2022,00:54:37,0.001,0.0,0.0,0.0
14/09/2022,00:55:36,0.000,0.0,0.0,0.0
14/09/2022,00:56:36,-0.000,0.0,0.0,0.0
14/09/2022,00:57:37,0.000,0.0,0.0,0.0
14/09/2022,00:58:37,-0.001,0.0,0.0,0.0
14/09/2022,00:59:37,0.000,0.0,0.0,0.0
14/09/2022,01:00:37,0.000,0.0,0.0,0.0
14/09/2022,01:01:36,0.000,0.0,0.0,0.0
14/09/2022,01:02:36,0.000,0.0,0.0,0.0
14/09/2022,01:03:37,0.000,0.0,0.0,0.0
14/09/2022,01:04:44,-0.001,0.0,0.0,0.0
14/09/2022,01:05:37,-0.001,0.0,0.0,0.0
14/09/2022,01:06:37,-0.001,0.0,0.0,0.0
14/09/2022,01:07:36,0.000,0.0,0.0,0.0
14/09/2022,01:08:37,-0.000,0.0,0.0,0.0
14/09/2022,01:09:37,-0.000,0.0,0.0,0.0
14/09/2022,01:10:36,0.000,0.0,0.0,0.0
14/09/2022,01:11:37,0.000,0.0,0.0,0.0
14/09/2022,01:12:37,0.000,0.0,0.0,0.0
14/09/2022,01:13:36,-0.001,0.0,0.0,0.0
14/09/2022,01:14:36,-0.000,0.0,0.0,0.0
14/09/2022,01:15:37,0.000,0.0,0.0,0.0
14/09/2022,01:16:37,-0.001,0.0,0.0,0.0
14/09/2022,01:17:36,0.000,0.0,0.0,0.0
14/09/2022,01:18:37,0.000,0.0,0.0,0.0
14/09/2022,01:19:36,0.000,0.0,0.0,0.0
14/09/2022,01:20:45,0.000,0.0,0.0,0.0
14/09/2022,01:21:36,0.000,0.0,0.0,0.0
14/09/2022,01:22:37,0.000,0.0,0.0,0.0
14/09/2022,01:23:37,0.000,0.0,0.0,0.0
14/09/2022,01:24:37,0.000,0.0,0.0,0.0
14/09/2022,01:25:45,0.000,0.0,0.0,0.0
14/09/2022,01:26:36,0.000,0.0,0.0,0.0
14/09/2022,01:27:37,0.000,0.0,0.0,0.0
14/09/2022,01:28:37,0.000,0.0,0.0,0.0
14/09/2022,01:29:37,-0.001,0.0,0.0,0.0
14/09/2022,01:30:37,0.001,0.0,0.0,0.0
14/09/2022,01:31:37,0.000,0.0,0.0,0.0
14/09/2022,01:32:37,0.001,0.0,0.0,0.0
14/09/2022,01:33:36,0.000,0.0,0.0,0.0
14/09/2022,01:34:37,0.000,0.0,0.0,0.0
14/09/2022,01:35:36,-0.000,0.0,0.0,0.0
14/09/2022,01:36:37,0.000,0.0,0.0,0.0
14/09/2022,01:37:37,0.001,0.0,0.0,0.0
14/09/2022,01:38:37,0.000,0.0,0.0,0.0
14/09/2022,01:39:36,0.000,0.0,0.0,0.0
14/09/2022,01:40:36,-0.000,0.0,0.0,0.0
14/09/2022,01:41:37,0.001,0.0,0.0,0.0
14/09/2022,01:42:37,0.000,0.0,0.0,0.0
14/09/2022,01:43:36,0.000,0.0,0.0,0.0
14/09/2022,01:44:37,0.001,0.0,0.0,0.0
14/09/2022,01:45:37,0.000,0.0,0.0,0.0
14/09/2022,01:46:37,-0.001,0.0,0.0,0.0
14/09/2022,01:47:37,0.000,0.0,0.0,0.0
14/09/2022,01:48:37,-0.001,0.0,0.0,0.0
14/09/2022,01:49:36,0.000,0.0,0.0,0.0
14/09/2022,01:50:36,-0.001,0.0,0.0,0.0
14/09/2022,01:51:37,0.000,0.0,0.0,0.0
14/09/2022,01:52:37,-0.001,0.0,0.0,0.0
14/09/2022,01:53:37,0.000,0.0,0.0,0.0
14/09/2022,01:54:37,0.000,0.0,0.0,0.0
14/09/2022,01:55:36,-0.001,0.0,0.0,0.0
14/09/2022,01:56:36,0.000,0.0,0.0,0.0
14/09/2022,01:57:37,0.001,0.0,0.0,0.0
14/09/2022,01:58:45,0.000,0.0,0.0,0.0
14/09/2022,01:59:37,0.001,0.0,0.0,0.0
14/09/2022,02:00:45,0.000,0.0,0.0,0.0
14/09/2022,02:01:36,0.001,0.0,0.0,0.0
14/09/2022,02:02:36,0.000,0.0,0.0,0.0
14/09/2022,02:03:37,0.001,0.0,0.0,0.0
14/09/2022,02:04:36,0.000,0.0,0.0,0.0
14/09/2022,02:05:36,-0.000,0.0,0.0,0.0
14/09/2022,02:06:37,-0.001,0.0,0.0,0.0
14/09/2022,02:07:37,0.000,0.0,0.0,0.0
14/09/2022,02:08:36,0.001,0.0,0.0,0.0
14/09/2022,02:09:37,0.000,0.0,0.0,0.0
14/09/2022,02:10:37,0.000,0.0,0.0,0.0
14/09/2022,02:11:37,-0.000,0.0,0.0,0.0
14/09/2022,02:12:37,0.000,0.0,0.0,0.0
14/09/2022,02:13:45,0.000,0.0,0.0,0.0
14/09/2022,02:14:36,0.000,0.0,0.0,0.0
14/09/2022,02:15:53,0.000,0.0,0.0,0.0
14/09/2022,02:17:37,-0.001,0.0,0.0,0.0
14/09/2022,02:18:36,0.000,0.0,0.0,0.0
14/09/2022,02:19:36,0.000,0.0,0.0,0.0
14/09/2022,02:20:37,-0.001,0.0,0.0,0.0
14/09/2022,02:21:46,0.001,0.0,0.0,0.0
14/09/2022,02:22:35,0.000,0.0,0.0,0.0
14/09/2022,02:23:36,-0.000,0.0,0.0,0.0
14/09/2022,02:24:37,-0.001,0.0,0.0,0.0
14/09/2022,02:25:37,0.000,0.0,0.0,0.0
14/09/2022,02:26:36,0.000,0.0,0.0,0.0
14/09/2022,02:27:37,-0.000,0.0,0.0,0.0
14/09/2022,02:28:37,0.000,0.0,0.0,0.0
14/09/2022,02:29:36,0.000,0.0,0.0,0.0
14/09/2022,02:30:37,0.000,0.0,0.0,0.0
14/09/2022,02:31:37,-0.000,0.0,0.0,0.0
14/09/2022,02:32:36,-0.001,0.0,0.0,0.0
14/09/2022,02:33:36,0.000,0.0,0.0,0.0
14/09/2022,02:34:37,0.000,0.0,0.0,0.0
14/09/2022,02:35:37,0.000,0.0,0.0,0.0
14/09/2022,02:36:45,0.000,0.0,0.0,0.0
14/09/2022,02:37:37,0.000,0.0,0.0,0.0
14/09/2022,02:38:37,0.000,0.0,0.0,0.0
14/09/2022,02:39:37,-0.001,0.0,0.0,0.0
14/09/2022,02:40:37,0.000,0.0,0.0,0.0
14/09/2022,02:41:54,-0.001,0.0,0.0,0.0
14/09/2022,02:43:38,0.001,0.0,0.0,0.0
14/09/2022,02:44:37,0.000,0.0,0.0,0.0
14/09/2022,02:45:36,0.001,0.0,0.0,0.0
14/09/2022,02:46:37,0.000,0.0,0.0,0.0
14/09/2022,02:47:37,0.001,0.0,0.0,0.0
14/09/2022,02:48:37,-0.001,0.0,0.0,0.0
14/09/2022,02:49:37,-0.000,0.0,0.0,0.0
14/09/2022,02:50:37,-0.001,0.0,0.0,0.0
14/09/2022,02:51:37,0.001,0.0,0.0,0.0
14/09/2022,02:52:37,0.000,0.0,0.0,0.0
14/09/2022,02:53:36,0.000,0.0,0.0,0.0
14/09/2022,02:54:45,-0.000,0.0,0.0,0.0
14/09/2022,02:55:37,0.000,0.0,0.0,0.0
14/09/2022,02:56:37,0.000,0.0,0.0,0.0
14/09/2022,02:57:45,0.000,0.0,0.0,0.0
14/09/2022,02:58:37,0.000,0.0,0.0,0.0
14/09/2022,02:59:37,0.000,0.0,0.0,0.0
14/09/2022,03:00:37,-0.000,0.0,0.0,0.0
14/09/2022,03:01:37,0.000,0.0,0.0,0.0
14/09/2022,03:02:37,-0.000,0.0,0.0,0.0
14/09/2022,03:03:37,0.000,0.0,0.0,0.0
14/09/2022,03:04:37,0.001,0.0,0.0,0.0
14/09/2022,03:05:37,-0.001,0.0,0.0,0.0
14/09/2022,03:06:37,0.000,0.0,0.0,0.0
14/09/2022,03:07:37,0.000,0.0,0.0,0.0
14/09/2022,03:08:37,0.000,0.0,0.0,0.0
14/09/2022,03:09:37,0.000,0.0,0.0,0.0
14/09/2022,03:10:36,0.000,0.0,0.0,0.0
14/09/2022,03:11:37,-0.000,0.0,0.0,0.0
14/09/2022,03:12:45,-0.001,0.0,0.0,0.0
14/09/2022,03:13:37,0.001,0.0,0.0,0.0
14/09/2022,03:14:37,-0.001,0.0,0.0,0.0
14/09/2022,03:15:45,0.000,0.0,0.0,0.0
14/09/2022,03:16:37,0.001,0.0,0.0,0.0
14/09/2022,03:17:37,-0.001,0.0,0.0,0.0
14/09/2022,03:18:46,0.001,0.0,0.0,0.0
14/09/2022,03:19:37,0.000,0.0,0.0,0.0
14/09/2022,03:20:37,0.001,0.0,0.0,0.0
14/09/2022,03:21:37,0.001,0.0,0.0,0.0
14/09/2022,03:22:36,0.001,0.0,0.0,0.0
14/09/2022,03:23:37,-0.001,0.0,0.0,0.0
14/09/2022,03:24:37,0.000,0.0,0.0,0.0
14/09/2022,03:25:37,0.000,0.0,0.0,0.0
14/09/2022,03:26:37,0.001,0.0,0.0,0.0
14/09/2022,03:27:37,0.000,0.0,0.0,0.0
14/09/2022,03:28:37,-0.000,0.0,0.0,0.0
14/09/2022,03:29:36,0.001,0.0,0.0,0.0
14/09/2022,03:30:37,-0.001,0.0,0.0,0.0
14/09/2022,03:31:37,0.000,0.0,0.0,0.0
14/09/2022,03:32:37,0.001,0.0,0.0,0.0
14/09/2022,03:33:45,0.001,0.0,0.0,0.0
14/09/2022,03:34:37,-0.001,0.0,0.0,0.0
14/09/2022,03:35:38,-0.001,0.0,0.0,0.0
14/09/2022,03:36:37,0.001,0.0,0.0,0.0
14/09/2022,03:37:37,0.000,0.0,0.0,0.0
14/09/2022,03:38:37,0.001,0.0,0.0,0.0
14/09/2022,03:39:37,-0.000,0.0,0.0,0.0
14/09/2022,03:40:37,0.000,0.0,0.0,0.0
14/09/2022,03:41:37,0.000,0.0,0.0,0.0
14/09/2022,03:42:45,0.000,0.0,0.0,0.0
14/09/2022,03:43:37,0.000,0.0,0.0,0.0
14/09/2022,03:44:37,0.000,0.0,0.0,0.0
14/09/2022,03:45:24,0.000,0.0,0.0,0.0
14/09/2022,03:46:37,0.000,0.0,0.0,0.0
14/09/2022,03:47:37,0.001,0.0,0.0,0.0
14/09/2022,03:48:37,0.000,0.0,0.0,0.0
14/09/2022,03:49:46,-0.001,0.0,0.0,0.0
14/09/2022,03:50:35,0.000,0.0,0.0,0.0
14/09/2022,03:51:37,0.000,0.0,0.0,0.0
14/09/2022,03:52:37,0.001,0.0,0.0,0.0
14/09/2022,03:53:37,0.000,0.0,0.0,0.0
14/09/2022,03:54:46,0.000,0.0,0.0,0.0
14/09/2022,03:55:37,0.000,0.0,0.0,0.0
14/09/2022,03:56:37,0.000,0.0,0.0,0.0
14/09/2022,03:57:37,0.000,0.0,0.0,0.0
14/09/2022,03:58:37,-0.000,0.0,0.0,0.0
14/09/2022,03:59:37,0.001,0.0,0.0,0.0
14/09/2022,04:00:36,0.000,0.0,0.0,0.0
14/09/2022,04:01:37,-0.000,0.0,0.0,0.0
14/09/2022,04:02:37,0.001,0.0,0.0,0.0
14/09/2022,04:03:37,0.000,0.0,0.0,0.0
14/09/2022,04:04:37,0.000,0.0,0.0,0.0
14/09/2022,04:05:37,0.000,0.0,0.0,0.0
14/09/2022,04:06:37,-0.001,0.0,0.0,0.0
14/09/2022,04:07:37,0.001,0.0,0.0,0.0
14/09/2022,04:08:37,0.000,0.0,0.0,0.0
14/09/2022,04:09:45,0.000,0.0,0.0,0.0
14/09/2022,04:10:37,0.000,0.0,0.0,0.0
14/09/2022,04:11:37,-0.000,0.0,0.0,0.0
14/09/2022,04:12:37,0.000,0.0,0.0,0.0
14/09/2022,04:13:37,-0.001,0.0,0.0,0.0
14/09/2022,04:14:37,0.000,0.0,0.0,0.0
14/09/2022,04:15:37,0.000,0.0,0.0,0.0
14/09/2022,04:16:37,0.000,0.0,0.0,0.0
14/09/2022,04:17:37,0.000,0.0,0.0,0.0
14/09/2022,04:18:45,0.001,0.0,0.0,0.0
14/09/2022,04:19:37,0.001,0.0,0.0,0.0
14/09/2022,04:20:37,0.000,0.0,0.0,0.0
14/09/2022,04:21:45,0.000,0.0,0.0,0.0
14/09/2022,04:22:37,0.000,0.0,0.0,0.0
14/09/2022,04:23:37,0.000,0.0,0.0,0.0
14/09/2022,04:24:37,0.000,0.0,0.0,0.0
14/09/2022,04:25:36,0.000,0.0,0.0,0.0
14/09/2022,04:26:37,0.000,0.0,0.0,0.0
14/09/2022,04:27:37,-0.001,0.0,0.0,0.0
14/09/2022,04:28:37,0.000,0.0,0.0,0.0
14/09/2022,04:29:37,0.000,0.0,0.0,0.0
14/09/2022,04:30:37,0.000,0.0,0.0,0.0
14/09/2022,04:31:37,-0.000,0.0,0.0,0.0
14/09/2022,04:32:37,0.000,0.0,0.0,0.0
14/09/2022,04:33:46,0.000,0.0,0.0,0.0
14/09/2022,04:34:37,-0.000,0.0,0.0,0.0
14/09/2022,04:35:37,0.000,0.0,0.0,0.0
14/09/2022,04:36:37,0.000,0.0,0.0,0.0
14/09/2022,04:37:37,0.000,0.0,0.0,0.0
14/09/2022,04:38:37,-0.001,0.0,0.0,0.0
14/09/2022,04:39:37,0.001,0.0,0.0,0.0
14/09/2022,04:40:37,-0.001,0.0,0.0,0.0
14/09/2022,04:41:37,0.001,0.0,0.0,0.0
14/09/2022,04:42:37,0.000,0.0,0.0,0.0
14/09/2022,04:43:37,0.000,0.0,0.0,0.0
14/09/2022,04:44:37,0.000,0.0,0.0,0.0
14/09/2022,04:45:37,0.000,0.0,0.0,0.0
14/09/2022,04:46:37,0.000,0.0,0.0,0.0
14/09/2022,04:47:37,0.000,0.0,0.0,0.0
14/09/2022,04:48:37,0.000,0.0,0.0,0.0
14/09/2022,04:49:37,0.001,0.0,0.0,0.0
14/09/2022,04:50:37,0.001,0.0,0.0,0.0
14/09/2022,04:51:46,-0.000,0.0,0.0,0.0
14/09/2022,04:52:37,0.001,0.0,0.0,0.0
14/09/2022,04:53:37,0.001,0.0,0.0,0.0
14/09/2022,04:54:37,0.001,0.0,0.0,0.0
14/09/2022,04:55:37,0.001,0.0,0.0,0.0
14/09/2022,04:56:37,0.000,0.0,0.0,0.0
14/09/2022,04:57:37,0.000,0.0,0.0,0.0
14/09/2022,04:58:37,0.001,0.0,0.0,0.0
14/09/2022,04:59:37,0.000,0.0,0.0,0.0
14/09/2022,05:00:37,-0.000,0.0,0.0,0.0
14/09/2022,05:01:37,0.001,0.0,0.0,0.0
14/09/2022,05:02:37,-0.000,0.0,0.0,0.0
14/09/2022,05:03:38,0.000,0.0,0.0,0.0
14/09/2022,05:04:38,0.001,0.0,0.0,0.0
14/09/2022,05:05:37,-0.000,0.0,0.0,0.0
14/09/2022,05:06:45,0.000,0.0,0.0,0.0
14/09/2022,05:07:37,0.000,0.0,0.0,0.0
14/09/2022,05:08:37,0.000,0.0,0.0,0.0
14/09/2022,05:09:37,0.000,0.0,0.0,0.0
14/09/2022,05:10:37,-0.000,0.0,0.0,0.0
14/09/2022,05:11:37,0.001,0.0,0.0,0.0
14/09/2022,05:12:37,-0.000,0.0,0.0,0.0
14/09/2022,05:13:37,0.000,0.0,0.0,0.0
14/09/2022,05:14:37,0.000,0.0,0.0,0.0
14/09/2022,05:15:37,0.000,0.0,0.0,0.0
14/09/2022,05:16:37,0.001,0.0,0.0,0.0
14/09/2022,05:17:37,0.001,0.0,0.0,0.0
14/09/2022,05:18:37,0.000,0.0,0.0,0.0
14/09/2022,05:19:37,-0.001,0.0,0.0,0.0
14/09/2022,05:20:37,0.000,0.0,0.0,0.0
14/09/2022,05:21:28,0.001,0.0,0.0,0.0
14/09/2022,05:22:37,0.001,0.0,0.0,0.0
14/09/2022,05:23:37,0.001,0.0,0.0,0.0
14/09/2022,05:24:37,0.001,0.0,0.0,0.0
14/09/2022,05:25:37,0.001,0.0,0.0,0.0
14/09/2022,05:26:39,0.000,0.0,0.0,0.0
14/09/2022,05:27:46,0.002,0.0,0.0,0.0
14/09/2022,05:28:37,0.002,0.0,0.0,0.0
14/09/2022,05:29:37,0.000,0.0,0.0,0.0
14/09/2022,05:30:37,0.001,0.0,0.0,0.0
14/09/2022,05:31:37,0.002,0.0,0.0,0.0
14/09/2022,05:32:37,0.001,0.0,0.0,0.0
14/09/2022,05:33:37,0.001,0.0,0.0,0.0
14/09/2022,05:34:37,0.002,0.0,0.0,0.0
14/09/2022,05:35:37,0.001,0.0,0.0,0.0
14/09/2022,05:36:37,0.002,0.0,0.0,0.0
14/09/2022,05:37:38,0.002,0.0,0.0,0.0
14/09/2022,05:38:37,0.002,0.0,0.0,0.0
14/09/2022,05:39:37,0.002,0.0,0.0,0.0
14/09/2022,05:40:46,0.002,0.0,0.0,0.0
14/09/2022,05:41:37,0.003,0.0,0.0,0.0
14/09/2022,05:42:46,0.003,0.0,0.0,0.0
14/09/2022,05:43:37,0.003,0.0,0.0,0.0
14/09/2022,05:44:37,0.003,0.0,0.0,0.0
14/09/2022,05:45:45,0.004,0.0,0.0,0.0
14/09/2022,05:46:37,0.005,0.0,0.0,0.0
14/09/2022,05:47:37,0.005,0.0,0.0,0.0
14/09/2022,05:48:37,0.004,0.0,0.0,0.0
14/09/2022,05:49:38,0.005,0.0,0.0,0.0
14/09/2022,05:50:38,0.005,0.0,0.0,0.0
14/09/2022,05:51:38,0.004,0.0,0.0,0.0
14/09/2022,05:52:37,0.005,0.0,0.0,0.0
14/09/2022,05:53:38,0.006,0.0,0.0,0.0
14/09/2022,05:54:37,0.006,0.0,0.0,0.0
14/09/2022,05:55:24,0.007,0.0,0.0,0.0
14/09/2022,05:56:38,0.006,0.0,0.0,0.0
14/09/2022,05:57:37,0.006,0.0,0.0,0.0
14/09/2022,05:58:45,0.007,0.0,0.0,0.0
14/09/2022,05:59:37,0.007,0.0,0.001,0.001
14/09/2022,06:00:46,0.007,0.0,0.001,0.0
14/09/2022,06:01:45,0.008,0.0,0.001,0.0
14/09/2022,06:02:37,0.008,0.0,0.001,0.0
14/09/2022,06:03:37,0.008,0.0,0.001,0.0
14/09/2022,06:04:37,0.010,0.0,0.001,0.0
14/09/2022,06:05:38,0.010,0.0,0.001,0.0
14/09/2022,06:06:37,0.011,0.0,0.002,0.001
14/09/2022,06:07:37,0.011,0.0,0.002,0.0
14/09/2022,06:08:37,0.012,0.0,0.002,0.0
14/09/2022,06:09:37,0.012,0.0,0.002,0.0
14/09/2022,06:10:46,0.014,0.0,0.002,0.0
14/09/2022,06:11:37,0.013,0.0,0.003,0.001
14/09/2022,06:12:38,0.014,0.0,0.003,0.0
14/09/2022,06:13:37,0.015,0.0,0.003,0.0
14/09/2022,06:14:38,0.015,0.0,0.003,0.0
14/09/2022,06:15:37,0.016,0.0,0.004,0.001
14/09/2022,06:16:45,0.018,0.0,0.004,0.0
14/09/2022,06:17:37,0.017,0.0,0.004,0.0
14/09/2022,06:18:37,0.018,0.0,0.004,0.0
14/09/2022,06:19:37,0.020,0.0,0.005,0.001
14/09/2022,06:20:37,0.020,0.0,0.005,0.0
14/09/2022,06:21:37,0.020,0.0,0.005,0.0
14/09/2022,06:22:53,0.022,0.0,0.006,0.001
14/09/2022,06:24:38,0.024,0.0,0.007,0.001
14/09/2022,06:25:37,0.024,0.0,0.007,0.0
14/09/2022,06:26:37,0.026,0.0,0.007,0.0
14/09/2022,06:27:37,0.027,0.0,0.008,0.001
14/09/2022,06:28:37,0.028,0.0,0.008,0.0
14/09/2022,06:29:37,0.029,0.0,0.009,0.001
14/09/2022,06:30:37,0.031,0.0,0.009,0.0
14/09/2022,06:31:45,0.031,0.0,0.01,0.001
14/09/2022,06:32:37,0.032,0.0,0.01,0.0
14/09/2022,06:33:37,0.034,0.0,0.011,0.001
14/09/2022,06:34:37,0.035,0.0,0.011,0.0
14/09/2022,06:35:37,0.036,0.0,0.012,0.001
14/09/2022,06:36:37,0.037,0.0,0.013,0.001
14/09/2022,06:37:37,0.037,0.0,0.013,0.0
14/09/2022,06:38:37,0.039,0.0,0.014,0.001
14/09/2022,06:39:38,0.041,0.0,0.015,0.001
14/09/2022,06:40:37,0.042,0.0,0.015,0.0
14/09/2022,06:41:37,0.045,0.0,0.016,0.001
14/09/2022,06:42:37,0.045,0.0,0.017,0.001
14/09/2022,06:43:38,0.047,0.0,0.018,0.001
14/09/2022,06:44:37,0.047,0.0,0.018,0.0
14/09/2022,06:45:37,0.049,0.0,0.019,0.001
14/09/2022,06:46:37,0.051,0.0,0.02,0.001
14/09/2022,06:47:38,0.053,0.0,0.021,0.001
14/09/2022,06:48:37,0.053,0.0,0.022,0.001
14/09/2022,06:49:45,0.056,0.0,0.023,0.001
14/09/2022,06:50:37,0.058,0.0,0.024,0.001
14/09/2022,06:51:37,0.059,0.0,0.025,0.001
14/09/2022,06:52:46,0.061,0.0,0.026,0.001
14/09/2022,06:53:38,0.063,0.0,0.027,0.001
14/09/2022,06:54:37,0.065,0.0,0.028,0.001
14/09/2022,06:55:37,0.066,0.0,0.029,0.001
14/09/2022,06:56:37,0.069,0.0,0.03,0.001
14/09/2022,06:57:37,0.070,0.0,0.031,0.001
14/09/2022,06:58:37,0.072,0.0,0.032,0.001
14/09/2022,06:59:37,0.075,0.0,0.033,0.001
14/09/2022,07:00:37,0.075,0.0,0.035,0.002
14/09/2022,07:01:38,0.076,0.0,0.036,0.001
14/09/2022,07:02:38,0.075,0.0,0.037,0.001
14/09/2022,07:03:39,0.074,0.0,0.038,0.001
14/09/2022,07:04:46,0.074,0.0,0.04,0.002
14/09/2022,07:05:37,0.075,0.0,0.041,0.001
14/09/2022,07:06:37,0.078,0.0,0.042,0.001
14/09/2022,07:07:46,0.080,0.0,0.044,0.002
14/09/2022,07:08:38,0.083,0.0,0.045,0.001
14/09/2022,07:09:38,0.088,0.0,0.046,0.001
14/09/2022,07:10:37,0.094,0.0,0.048,0.002
14/09/2022,07:11:45,0.101,0.0,0.05,0.002
14/09/2022,07:12:37,0.106,0.0,0.051,0.001
14/09/2022,07:13:37,0.111,0.0,0.053,0.002
14/09/2022,07:14:37,0.114,0.0,0.055,0.002
14/09/2022,07:15:37,0.116,0.0,0.057,0.002
14/09/2022,07:16:37,0.117,0.0,0.059,0.002
14/09/2022,07:17:37,0.120,0.0,0.061,0.002
14/09/2022,07:18:37,0.123,0.0,0.063,0.002
14/09/2022,07:19:37,0.125,0.0,0.065,0.002
14/09/2022,07:20:38,0.128,0.0,0.067,0.002
14/09/2022,07:21:37,0.129,0.0,0.069,0.002
14/09/2022,07:22:37,0.133,0.0,0.071,0.002
14/09/2022,07:23:37,0.136,0.0,0.073,0.002
14/09/2022,07:24:37,0.141,0.0,0.076,0.003
14/09/2022,07:25:37,0.143,0.0,0.078,0.002
14/09/2022,07:26:37,0.146,0.0,0.08,0.002
14/09/2022,07:27:37,0.148,0.0,0.083,0.003
14/09/2022,07:28:38,0.150,0.0,0.085,0.002
14/09/2022,07:29:37,0.150,0.0,0.088,0.003
14/09/2022,07:30:28,0.153,0.0,0.09,0.002
14/09/2022,07:31:39,0.155,0.0,0.093,0.003
14/09/2022,07:32:37,0.155,0.0,0.096,0.003
14/09/2022,07:33:37,0.156,0.0,0.098,0.002
14/09/2022,07:34:46,0.160,0.0,0.101,0.003
14/09/2022,07:35:37,0.160,0.0,0.103,0.002
14/09/2022,07:36:37,0.159,0.0,0.106,0.003
14/09/2022,07:37:38,0.157,0.0,0.109,0.003
14/09/2022,07:38:37,0.156,0.0,0.111,0.002
14/09/2022,07:39:37,0.155,0.0,0.114,0.003
14/09/2022,07:40:37,0.154,0.0,0.116,0.002
14/09/2022,07:41:37,0.155,0.0,0.119,0.003
14/09/2022,07:42:37,0.157,0.0,0.122,0.003
14/09/2022,07:43:37,0.160,0.0,0.124,0.002
14/09/2022,07:44:38,0.161,0.0,0.127,0.003
14/09/2022,07:45:37,0.164,0.0,0.13,0.003
14/09/2022,07:46:37,0.167,0.0,0.132,0.002
14/09/2022,07:47:37,0.171,0.0,0.135,0.003
14/09/2022,07:48:37,0.177,0.0,0.138,0.003
14/09/2022,07:49:37,0.182,0.0,0.141,0.003
14/09/2022,07:50:37,0.185,0.0,0.144,0.003
14/09/2022,07:51:37,0.185,0.0,0.147,0.003
14/09/2022,07:52:46,0.183,0.0,0.151,0.004
14/09/2022,07:53:37,0.185,0.0,0.153,0.002
14/09/2022,07:54:37,0.191,0.0,0.157,0.004
14/09/2022,07:55:45,0.202,0.0,0.16,0.003
14/09/2022,07:56:38,0.211,0.0,0.163,0.003
14/09/2022,07:57:38,0.216,0.0,0.167,0.004
14/09/2022,07:58:37,0.220,1.0,0.17,0.003
14/09/2022,07:59:37,0.220,1.0,0.174,0.004
14/09/2022,08:00:38,0.220,1.0,0.178,0.004
14/09/2022,08:01:37,0.220,1.0,0.182,0.004
14/09/2022,08:02:37,0.219,1.0,0.185,0.003
14/09/2022,08:03:37,0.222,1.0,0.189,0.004
14/09/2022,08:04:37,0.225,1.0,0.192,0.003
14/09/2022,08:05:38,0.229,1.0,0.196,0.004
14/09/2022,08:06:37,0.236,1.0,0.2,0.004
14/09/2022,08:07:38,0.242,1.0,0.204,0.004
14/09/2022,08:08:37,0.246,1.0,0.208,0.004
14/09/2022,08:09:37,0.250,1.0,0.212,0.004
14/09/2022,08:10:37,0.255,1.0,0.217,0.005
14/09/2022,08:11:37,0.260,1.0,0.221,0.004
14/09/2022,08:12:38,0.269,1.0,0.225,0.004
14/09/2022,08:13:37,0.276,1.0,0.23,0.005
14/09/2022,08:14:37,0.281,1.0,0.234,0.004
14/09/2022,08:15:38,0.286,1.0,0.239,0.005
14/09/2022,08:16:37,0.291,1.0,0.244,0.005
14/09/2022,08:17:37,0.304,1.0,0.249,0.005
14/09/2022,08:18:37,0.301,1.0,0.254,0.005
14/09/2022,08:19:37,0.304,1.0,0.259,0.005
14/09/2022,08:20:37,0.309,1.0,0.264,0.005
14/09/2022,08:21:37,0.317,1.0,0.269,0.005
14/09/2022,08:22:37,0.322,1.0,0.275,0.006
14/09/2022,08:23:38,0.328,1.0,0.28,0.005
14/09/2022,08:24:37,0.335,1.0,0.286,0.006
14/09/2022,08:25:38,0.341,1.0,0.291,0.005
14/09/2022,08:26:46,0.355,1.0,0.298,0.007
14/09/2022,08:27:37,0.357,1.0,0.303,0.005
14/09/2022,08:28:37,0.370,1.0,0.309,0.006
14/09/2022,08:29:37,0.384,1.0,0.315,0.006
14/09/2022,08:30:37,0.396,1.0,0.322,0.007
14/09/2022,08:31:38,0.409,1.0,0.328,0.006
14/09/2022,08:32:37,0.410,1.0,0.335,0.007
14/09/2022,08:33:38,0.432,1.0,0.342,0.007
14/09/2022,08:34:37,0.420,1.0,0.349,0.007
14/09/2022,08:35:38,0.460,1.0,0.357,0.008
14/09/2022,08:36:44,0.460,1.0,0.365,0.008
14/09/2022,08:37:37,0.466,1.0,0.372,0.007
14/09/2022,08:38:45,0.468,1.0,0.381,0.009
14/09/2022,08:39:38,0.456,1.0,0.388,0.007
14/09/2022,08:40:37,0.497,1.0,0.396,0.008
14/09/2022,08:41:46,0.494,1.0,0.405,0.009
14/09/2022,08:42:37,0.504,1.0,0.412,0.007
14/09/2022,08:43:37,0.489,1.0,0.42,0.008
14/09/2022,08:44:37,0.484,1.0,0.428,0.008
14/09/2022,08:45:37,0.492,1.0,0.436,0.008
14/09/2022,08:46:38,0.527,1.0,0.445,0.009
14/09/2022,08:47:37,0.494,1.0,0.453,0.008
14/09/2022,08:48:37,0.469,1.0,0.461,0.008
14/09/2022,08:49:37,0.429,1.0,0.469,0.008
14/09/2022,08:50:37,0.412,1.0,0.476,0.007
14/09/2022,08:51:38,0.401,1.0,0.483,0.007
14/09/2022,08:52:37,0.427,1.0,0.49,0.007
14/09/2022,08:53:38,0.415,1.0,0.497,0.007
14/09/2022,08:54:37,0.393,1.0,0.503,0.006
14/09/2022,08:55:37,0.388,1.0,0.51,0.007
14/09/2022,08:56:37,0.401,1.0,0.516,0.006
14/09/2022,08:57:37,0.399,1.0,0.523,0.007
14/09/2022,08:58:39,0.399,1.0,0.53,0.007
14/09/2022,08:59:46,0.374,1.0,0.537,0.007
14/09/2022,09:00:36,0.363,1.0,0.542,0.005
14/09/2022,09:01:37,0.379,1.0,0.548,0.006
14/09/2022,09:02:38,0.412,1.0,0.555,0.007
14/09/2022,09:03:38,0.413,1.0,0.562,0.007
14/09/2022,09:04:38,0.400,1.0,0.569,0.007
14/09/2022,09:05:38,0.384,1.0,0.575,0.006
14/09/2022,09:06:37,0.371,1.0,0.582,0.007
14/09/2022,09:07:37,0.389,1.0,0.588,0.006
14/09/2022,09:08:38,0.391,1.0,0.594,0.006
14/09/2022,09:09:37,0.408,1.0,0.601,0.007
14/09/2022,09:10:46,0.430,1.0,0.609,0.008
14/09/2022,09:11:38,0.458,1.0,0.615,0.006
14/09/2022,09:12:37,0.461,1.0,0.623,0.008
14/09/2022,09:13:38,0.488,1.0,0.631,0.008
14/09/2022,09:14:45,0.488,1.0,0.64,0.009
14/09/2022,09:15:38,0.499,1.0,0.647,0.007
14/09/2022,09:16:38,0.525,1.0,0.656,0.009
14/09/2022,09:17:37,0.473,1.0,0.663,0.007
14/09/2022,09:18:37,0.469,1.0,0.672,0.009
14/09/2022,09:19:38,0.477,1.0,0.679,0.007
14/09/2022,09:20:46,0.486,1.0,0.688,0.009
14/09/2022,09:21:46,0.493,1.0,0.697,0.009
14/09/2022,09:22:37,0.510,1.0,0.704,0.007
14/09/2022,09:23:38,0.537,1.0,0.713,0.009
14/09/2022,09:24:37,0.541,1.0,0.722,0.009
14/09/2022,09:25:37,0.547,1.0,0.731,0.009
14/09/2022,09:26:37,0.547,1.0,0.74,0.009
14/09/2022,09:27:38,0.555,1.0,0.749,0.009
14/09/2022,09:28:38,0.556,1.0,0.759,0.01
14/09/2022,09:29:37,0.590,1.0,0.768,0.009
14/09/2022,09:30:37,0.636,1.0,0.778,0.01
14/09/2022,09:31:38,0.535,1.0,0.788,0.01
14/09/2022,09:32:38,0.538,1.0,0.797,0.009
14/09/2022,09:33:37,0.539,1.0,0.806,0.009
14/09/2022,09:34:37,0.552,1.0,0.815,0.009
14/09/2022,09:35:46,0.586,1.0,0.826,0.011
14/09/2022,09:36:37,0.593,1.0,0.835,0.009
14/09/2022,09:37:38,0.606,1.0,0.845,0.01
14/09/2022,09:38:37,0.619,1.0,0.855,0.01
14/09/2022,09:39:38,0.798,2.0,0.867,0.012
14/09/2022,09:40:37,0.848,2.0,0.879,0.012
14/09/2022,09:41:37,0.884,2.0,0.894,0.015
14/09/2022,09:42:38,0.881,2.0,0.909,0.015
14/09/2022,09:43:37,0.858,2.0,0.923,0.014
14/09/2022,09:44:37,0.692,2.0,0.935,0.012
14/09/2022,09:45:38,0.919,2.0,0.948,0.013
14/09/2022,09:46:37,0.924,2.0,0.964,0.016
14/09/2022,09:47:38,0.765,2.0,0.977,0.013
14/09/2022,09:48:37,0.853,2.0,0.991,0.014
14/09/2022,09:49:37,0.802,2.0,1.005,0.014
14/09/2022,09:50:38,0.681,2.0,1.017,0.012
14/09/2022,09:51:37,0.873,2.0,1.031,0.014
14/09/2022,09:52:38,0.885,2.0,1.046,0.015
14/09/2022,09:53:37,0.985,2.0,1.062,0.016
14/09/2022,09:54:37,0.973,2.0,1.079,0.017
14/09/2022,09:55:38,0.997,2.0,1.095,0.016
14/09/2022,09:56:46,1.012,2.0,1.114,0.019
14/09/2022,09:57:38,1.017,2.0,1.129,0.015
14/09/2022,09:58:38,1.010,2.0,1.146,0.017
14/09/2022,09:59:37,1.007,2.0,1.162,0.016
14/09/2022,10:00:37,0.941,2.0,1.178,0.016
14/09/2022,10:01:37,0.954,2.0,1.195,0.017
14/09/2022,10:02:37,0.991,2.0,1.211,0.016
14/09/2022,10:03:38,0.974,2.0,1.227,0.016
14/09/2022,10:04:38,1.047,2.0,1.244,0.017
14/09/2022,10:05:37,1.061,2.0,1.261,0.017